This is the latest recevied weather packets stored in our database for station/object HP3ICC-22. If no packets are shown the sender has not sent any weather packets the latest 10 day(s).
| Time | Temp. | Humidity | Pressure | Rain* | Wind** | Luminosity | Snow |
|---|---|---|---|---|---|---|---|
| 1777927402 | 15° C | 74% | 1011 hPa | 0 mm | - | - | - |
| 1777927342 | 15° C | 74% | 1011 hPa | 0 mm | - | - | - |
| 1777926202 | 15° C | 69% | 1011 hPa | 0 mm | - | - | - |
| 1777926142 | 15° C | 69% | 1011 hPa | 0 mm | - | - | - |
| 1777925001 | 15.56° C | 68% | 1011 hPa | 0 mm | - | - | - |
| 1777924941 | 15.56° C | 68% | 1011 hPa | 0 mm | - | - | - |
| 1777923801 | 15.56° C | 67% | 1012 hPa | 0 mm | - | - | - |
| 1777923740 | 15.56° C | 67% | 1012 hPa | 0 mm | - | - | - |
| 1777922600 | 16.11° C | 61% | 1012 hPa | 0 mm | - | - | - |
| 1777922540 | 16.11° C | 61% | 1012 hPa | 0 mm | - | - | - |
| 1777921399 | 16.11° C | 61% | 1012 hPa | 0 mm | - | - | - |
| 1777921339 | 16.11° C | 61% | 1012 hPa | 0 mm | - | - | - |
| 1777920199 | 16.67° C | 60% | 1012 hPa | 0 mm | - | - | - |
| 1777920138 | 16.67° C | 60% | 1012 hPa | 0 mm | - | - | - |
| 1777918999 | 17.22° C | 61% | 1013 hPa | 0 mm | - | - | - |
| 1777918938 | 17.22° C | 61% | 1013 hPa | 0 mm | - | - | - |
| 1777917797 | 17.22° C | 59% | 1013 hPa | 0 mm | - | - | - |
| 1777917737 | 17.22° C | 59% | 1013 hPa | 0 mm | - | - | - |
| 1777916597 | 17.22° C | 60% | 1013 hPa | 0 mm | - | - | - |
| 1777916537 | 17.22° C | 60% | 1013 hPa | 0 mm | - | - | - |
| 1777915396 | 16.67° C | 61% | 1013 hPa | 0 mm | - | - | - |
| 1777915336 | 16.67° C | 61% | 1013 hPa | 0 mm | - | - | - |
| 1777914196 | 16.67° C | 59% | 1013 hPa | 0 mm | - | - | - |
| 1777914136 | 16.67° C | 59% | 1013 hPa | 0 mm | - | - | - |
| 1777912995 | 16.67° C | 60% | 1013 hPa | 0 mm | - | - | - |
* Rain latest hour (hover to see other rain measurements)
** Current wind speed in m/s (hover to see current wind gust speed)